www.pogodaiklimat.ru

Погода и климат >> Архив погоды >> Индия >> Мадхья-Прадеш >> Кхаджурахо


ПОГОДА в Кхаджурахо

  • Прогноз погоды в Кхаджурахо
  • Монитор погоды в Кхаджурахо

АРХИВ ПОГОДЫ в Кхаджурахо

Время (UTC), дата Ветер
(напр.,м/с)
 
Видим.   Явления Облачность Т
(С)
Тd
(С)
f
(%)
Тe
(С)
Тes
(С)
Комфортность P
(гПа)
Po
(гПа)
Тmin
(С)
Tmax
(С)
R
(мм)
R24
(мм)
S
(см)
03 19.08 З 1 4000 м мгла 6/4 600 м
[St Ac trans]
+27.4 +25.4 89 +40 +45 очень
душно
1005.5 980.5 +25.7
06 19.08 штиль 0 4000 м мгла 6/4 600 м
[St Ac trans]
+30.8 +26.0 76 +46 +60 опасность
перегрева
1004.7 980.0
09 19.08 штиль 0 4000 м слаб. морось 9/5 600 м
[St Ac trans]
+32.0 +26.1 71 +48 +53 опасность
перегрева
1002.1 977.6 0.0
12 19.08 штиль 0 4000 м гроза, ливневой дождь 10/8 540 м
[Cb cap As op]
+26.6 +26.3 98 +40 +40 очень
душно
1002.1 977.2 +33.3 21
03 20.08 СЗ 1 4000 м 8/0
[Ac trans Ci fib]
+27.6 +26.8 95 +43 +49 опасность
перегрева
1004.1 979.2 +24.3 77
06 20.08 СЗ 3 4000 м 8/4 600 м
[Sc Ac trans]
+29.0 +25.6 82 +43 +49 опасность
перегрева
1003.3 978.5
09 20.08 штиль 0 4000 м гроза, ливневой дождь 10/6 540 м
[Cb cap As op]
+26.6 +25.2 92 +38 +40 очень
душно
1002.2 977.3 10
12 20.08 З 2 4000 м 8/4 600 м
[Sc Ac trans]
+29.0 +25.6 82 +43 +43 опасность
перегрева
1001.0 976.3 +30.4 10
03 21.08 С 2 2000 м слаб. дождь 10/5 540 м
[St As op]
+27.0 +25.9 94 +40 +41 очень
душно
1002.2 977.3 +24.0 14
06 21.08 С 2 4000 м мгла {дождь} 8/4 600 м
[St Ac trans]
+27.0 +25.9 94 +40 +48 очень
душно
1002.5 977.6 12
09 21.08 З 3 4000 м 6/4 750 м
[Cu Sc Ac trans]
+29.0 +25.0 79 +42 +47 опасность
перегрева
1001.4 976.7 12
12 21.08 З 3 4000 м 4/3 900 м
[Cu Sc Ac trans]
+29.0 +25.1 80 +42 +43 опасность
перегрева
999.5 974.8 +31.4 12
03 22.08 СЗ 3 2000 м слаб. дождь 10/5 540 м
[St As op]
+26.0 +25.1 95 +37 +38 очень
душно
1001.8 976.8 +23.4 62
06 22.08 С 1 4000 м мгла {дождь} 8/4 600 м
[Sc Ac trans]
+27.0 +24.7 87 +38 +47 очень
душно
1002.8 977.9 5
09 22.08 З 2 4000 м мгла {дождь} 8/4 600 м
[St Ac trans]
+28.0 +24.6 82 +40 +45 очень
душно
1001.1 976.3 5
12 22.08 С 2 4000 м гроза, ливневой дождь 10/6 540 м
[Cb cap As op]
+27.6 +25.6 89 +41 +41 опасность
перегрева
1000.3 975.5 +28.4 5
03 23.08 З 2 4000 м мгла 10/5 540 м
[St As op]
+26.6 +24.9 90 +38 +39 очень
душно
1003.7 978.7 +24.2 5
06 23.08 С 2 4000 м 6/4 750 м
[Cu med, cong Ac trans]
+30.4 +24.7 72 +43 +53 опасность
перегрева
1003.1 978.4
09 23.08 З 3 4000 м 8/4 600 м
[Sc Ac trans]
+31.6 +24.5 66 +44 +48 опасность
перегрева
1000.0 975.5
12 23.08 З 2 4000 м 8/4 600 м
[Sc Ac trans]
+31.6 +26.6 75 +49 +49 опасность
перегрева
999.2 974.7 +33.0
03 24.08 В 2 4000 м слаб. морось 10/5 540 м
[St As op]
+25.0 +24.4 96 +35 +36 очень
душно
1002.8 977.7 +23.0 100
06 24.08 штиль 0 4000 м мгла {дождь} 10/5 540 м
[Cu Sc As op]
+26.4 +25.8 97 +39 +42 очень
душно
1003.7 978.7 1
09 24.08 В 3 4000 м мгла 9/5 360 м
[Frnb Ac trans]
+28.6 +25.8 85 +43 +46 опасность
перегрева
1000.7 976.0 1
12 24.08 СВ 3 4000 м мгла 8/4 600 м
[Sc Ac trans]
+29.0 +26.2 85 +44 +44 опасность
перегрева
999.5 974.8 +30.2 1
03 25.08 СВ 3 2000 м мгла 10/6 360 м
[Frnb As op]
+27.0 +26.2 95 +41 +41 опасность
перегрева
1002.6 977.7 +25.0 4
06 25.08 СВ 3 4000 м мгла 8/4 600 м
[Sc Ac trans]
+30.6 +27.0 81 +48 +54 опасность
перегрева
1001.8 977.2
09 25.08 В 3 4000 м мгла 8/5 600 м
[Cu Sc Ac trans]
+32.4 +27.8 77 +53 +56 опасность
перегрева
999.6 975.2
12 25.08 В 3 4000 м гроза, ливневой дождь 10/8 600 м
[Cb cap Ac trans]
+29.0 +28.2 95 +48 +48 опасность
перегрева
998.7 974.0 +32.8 22

 

Местоположение метеостанции Кхаджурахо (Мадхья-Прадеш, Индия): широта 24.98 долгота 79.92 высота над уровнем моря 221 м.

В архиве по умолчанию представлена погода в Кхаджурахо за последнюю неделю. Архивные данные за месяц целиком и за предыдущие месяцы, начиная с января 2011 года, Вы можете получить, выбрав интересующий диапазон дат из раскрывающегося списка и нажав кнопку "Ввод!".


*Определитесь, кто Вы:
робот инопланетянин человек

Внимание! Время в таблицах - всемирное. Для получения местного времени необходимо прибавить поправку, которая равна 5.5 ч.

Смотрите также архив погоды в соседних городах и на ближайших метеорологических станциях:

Погода в Ноугонге (Мадхья-Прадеш, Индия) (48 км)
Погода в Банде (Уттар-Прадеш, Индия) (71 км)
Погода в Сатне (Мадхья-Прадеш, Индия) (103 км)
Погода в Хамирпуре (Уттар-Прадеш, Индия) (110 км)
Погода в Тикамгархе (Мадхья-Прадеш, Индия) (112 км)
Погода в Дамо (Мадхья-Прадеш, Индия) (136 км)
Погода в Джханси (Уттар-Прадеш, Индия) (141 км)
Погода в Реве (Мадхья-Прадеш, Индия) (148 км)
Погода в Сагаре (Мадхья-Прадеш, Индия) (173 км)
Погода в Умарии (Мадхья-Прадеш, Индия) (188 км)

Пояснения к столбцам:

Ветер - указаны скорость ветра в м/с - средняя за 10 мин, порывы в срок и между сроками (в фигурных скобках) и направление, откуда дует ветер: С - северный, СВ - северо-восточный, В - восточный, ЮВ - юго-восточный, Ю - южный, ЮЗ - юго-западный, З - западный, СЗ - северо-западный.
Видимость - горизонтальная дальность видимости в метрах или километрах. При видимости от 1 до 10 км при отсутствии осадков обычно наблюдается дымка, при ухудшении видимости до 1 км и менее - туман. В сухую погоду видимость может ухудшаться дымом, пылью или мглою.
Явления - указаны атмосферные явления, наблюдавшиеся в срок или в последний час перед сроком; фигурными скобками обозначены явления, наблюдавшиеся между сроками (за 1-3 часа до срока); квадратными скобками обозначены град или гололедные отложения с указанием их диаметра в мм.
Облачность - указаны через наклонную черту общая и нижняя облачность в баллах и высота нижней границы облаков в метрах; квадратными скобками обозначены формы облаков: Ci - перистые, Cs - перисто-слоистые, Cc - перисто-кучевые, Ac - высококучевые, As - высокослоистые, Sc - слоисто-кучевые, Ns - слоисто-дождевые, Cu - кучевые, Cb - кучево-дождевые. Подробнее классификацию облаков см. в Атласе облаков (PDF).
T - Температура воздуха - температура, измеренная на высоте 2 м над землей.
Td - Температура точки росы - температура, при понижении до которой содержащийся в воздухе водяной пар достигнет насыщения.
f - Относительная влажность воздуха - влажноcть воздуха, измеренная на высоте 2 м над землей.
Te - Эффективная температура - температура, которую ощущает одетый по сезону человек в тени. Характеристика душности погоды. При расчете учитывается влияние влажности воздуха и скорости ветра на теплоощущения человека.
Tes - Эффективная температура на солнце - температура, которую ощущает человек, с поправкой на солнечный нагрев. Характеристика знойности погоды. Зависит от высоты солнца над горизонтом, облачности и скорости ветра. Ночью, в пасмурную погоду, а также при ветре 12 м/с и более поправка равна нулю.
P - Атмосферное давление - приведенное к уровню моря атмосферное давление.
Po - Атмосферное давление - измеренное на уровне метеостанции атмосферное давление.
Tmin - Минимальная температура - минимум температуры воздуха на высоте 2 м над землей.
Tmax - Максимальная температура - максимум температуры воздуха на высоте 2 м над землей.
R - Количество осадков - Количество выпавших осадков за период времени, мм. При наведении курсора мыши на число - период времени, за который выпало указанное количество осадков.
R24 - Количество осадков - Количество выпавших осадков за 24 часа, мм.
S - Снежный покров - Высота снежного покрова, см. При наведении курсора мыши на число - состояние снежного покрова и степень покрытия местности в баллах.